Regional Weather Roundup
Issued by NWS

Home | Current Version | Previous Version | Text Only | Print | Product List | Glossary Off
Versions: 1 2 3 4 5 6 7 8 9 10 11 12 13 14 15 16 17 18 19 20 21 22 23 24 25 26 27 28 29 30 31 32 33 34 35 36 37 38 39 40 41 42 43 44 45 46 47 48 49 50

000
ASUS43 KDMX 251506
RWRIA

WEATHER ROUNDUP FOR IOWA
NATIONAL WEATHER SERVICE DES MOINES IA
1000 AM CDT THU MAY 25 2017

NOTE: "FAIR" INDICATES FEW OR NO CLOUDS BELOW 12,000 FEET WITH NO
SIGNIFICANT WEATHER AND/OR OBSTRUCTIONS TO VISIBILITY.

* - THESE STATIONS ARE NOT NWS STATIONS...THUS NOT UNDER NWS
QUALITY CONTROL.  THEY ALSO DO NOT REPORT WEATHER SUCH
AS PRECIPITATION OR FOG.

IAZ001>003-012>014-020>022-031>034-043>046-251600-
   NORTHWEST IOWA

CITY           SKY/WX    TMP DP  RH WIND       PRES   REMARKS
CARROLL *      SUNNY     64  50  59 S14       29.70R
CHEROKEE *     SUNNY     61  50  67 S15G23    29.65F
DENISON *      SUNNY     63  50  63 S12G21    29.68F
LE MARS *      CLOUDY    63  48  59 S16G24    29.62F
ORANGE CITY *  PTSUNNY   61  50  67 S18G24    29.63F
SHELDON *      SUNNY     61  48  63 S22G31    29.62F
SIOUX CITY     PTSUNNY   62  52  69 S20G25    29.62F
SPENCER        MOSUNNY   62  50  64 S17       29.67F
STORM LAKE *   SUNNY     63  48  59 S20       29.67F
$$

IAZ055>058-069>071-079>083-090>094-251600-
   SOUTHWEST IOWA

CITY           SKY/WX    TMP DP  RH WIND       PRES   REMARKS
ATLANTIC *     SUNNY     63  50  63 S13       29.69S
AUDUBON *      SUNNY     63  52  67 S13       29.70S
CLARINDA *     SUNNY     64  52  63 S12       29.72S
COUNCIL BLFS * MOSUNNY   61  52  72 S13       29.66F
CRESTON *      SUNNY     61  52  72 S10       29.72S
HARLAN  *      SUNNY     63  50  63 S13       29.70F
LAMONI         SUNNY     61  52  72 VRB5      29.72R
RED OAK *      MOSUNNY   63  50  63 S13       29.68F
SHENANDOAH *   SUNNY     63  50  63 S14G21    29.68F
$$

IAZ047>049-059>061-072>074-084-251600-
   CENTRAL IOWA

CITY           SKY/WX    TMP DP  RH WIND       PRES   REMARKS
AMES           SUNNY     60  52  74 S5        29.72R
ANKENY *         N/A     61  52  72 CALM      29.73R
BOONE *        MOSUNNY   59  55  88 S7        29.71S
CHARITON *     SUNNY     61  50  67 SE5       29.71F
DES MOINES     MOSUNNY   61  51  70 SE6       29.72R
GRINNELL*      SUNNY     59  50  71 CALM      29.74R
KNOXVILLE *    SUNNY     59  48  67 VRB3      29.70F
MARSHALLTOWN   MOSUNNY   58  52  80 SE5       29.71S
NEWTON *       SUNNY     59  50  72 S5        29.71F
PELLA *        SUNNY     62  51  67 CALM      29.73S
PERRY *          N/A     62  52  69 SE8       29.71S
$$

IAZ004>006-015-016-023>025-035-036-251600-
   NORTH CENTRAL IOWA

CITY           SKY/WX    TMP DP  RH WIND       PRES   REMARKS
ALGONA *       PTSUNNY   61  52  72 S14       29.70F
CLARION *      SUNNY     61  52  72 S10       29.71S
ESTHERVILLE    SUNNY     59  52  77 S18       29.68F
FORT DODGE *   MOSUNNY   61  50  67 S8        29.72S
MASON CITY     MOSUNNY   58  51  78 SE9       29.72F
FOREST CITY *    N/A     61  46  59 S8        29.72R
WEBSTER CITY * SUNNY     61  50  67 S9        29.70S
IOWA FALLS *     N/A     60  52  77 E6        29.73S
$$

IAZ007>011-017>019-026>030-037>042-050>054-066-251600-
   NORTHEAST IOWA

CITY           SKY/WX    TMP DP  RH WIND       PRES   REMARKS
CEDAR RAPIDS   MOSUNNY   57  52  83 VRB6      29.71S
CHARLES CITY * MOSUNNY   59  52  77 CALM      29.73S
CLINTON *      CLOUDY    55  52  89 N8        29.70S
DECORAH *      CLOUDY    54  50  87 CALM      29.71S
DUBUQUE        CLOUDY    54  51  90 N7        29.71R
MONTICELLO *   CLOUDY    57  52  82 N9        29.71R
OELWEIN *      CLOUDY    54  52  94 N8        29.73F
WATERLOO       SUNNY     59  50  72 CALM      29.72S
$$

IAZ064-065-067-068-078-251600-
   EAST CENTRAL IOWA

CITY           SKY/WX    TMP DP  RH WIND       PRES   REMARKS
DAVENPORT      CLOUDY    57  51  80 N10       29.70F
IOWA CITY      MOSUNNY   62  52  69 NE6       29.72S
MT. PLEASANT * MOSUNNY   60  51  71 N3        29.72S
MUSCATINE *    PTSUNNY   61  52  72 VRB5G12   29.71S
QUAD CITIES    CLOUDY    59  51  75 VRB5      29.69S
$$

IAZ062-063-075>077-085>089-095>099-251600-
   SOUTHEAST IOWA

CITY           SKY/WX    TMP DP  RH WIND       PRES   REMARKS
BURLINGTON     SUNNY     62  53  72 VRB7      29.70S
FAIRFIELD *    MOSUNNY   61  50  67 W5        29.72R
FORT MADISON * MOSUNNY   61  55  82 N7        29.72S
KEOKUK *       SUNNY     63  52  67 NW7       29.71S
OSKALOOSA *      N/A     59  49  69 CALM      29.72F
CENTERVILLE *    N/A     61  50  67 CALM      29.73F
OTTUMWA        MOSUNNY   59  49  69 CALM      29.71F
WASHINGTON *   MOSUNNY   61  52  72 W7        29.73S
$$

ABBREVIATIONS USED IN REMARKS
   TC - TEMPERATURES IN CELSIUS
  WCI - WIND CHILL INDEX
   HX - HEAT INDEX
  VSB - VISIBILITY
$$





USA.gov is the U.S. government's official web portal to all federal, state and local government web resources and services.